This demonstration page uses our WeatherBlox Daily Observations layout. Learn more.

38.88101, -77.10428

Hourly Observations for November 4, 2016

Temp ( °F °C ) Dew Point ( °F °C ) Humidity (%) Winds ( mph kmh ) Pressure ( in mb ) Visibility ( mi km ) Precip ( " mm )
12:52 am 00:52 Cloudy 65 18.3 51 10.6 61 61 NNE 12 19 30.03 1017 10 16.09344 0 0
1:52 am 01:52 Cloudy 63 17.2 51 10.6 65 65 N 10 17 30.03 1017 10 16.09344 0 0
2:52 am 02:52 Cloudy 62 16.7 49 9.4 62 62 N 10 17 30.06 1018 10 16.09344 0 0
3:52 am 03:52 Cloudy 60 15.6 48 8.9 65 65 NNW 8 13 30.09 1019 10 16.09344 0 0
4:52 am 04:52 Mostly Cloudy 59 15 48 8.9 67 67 NW 9 15 30.09 1019 10 16.09344 0 0
5:52 am 05:52 Mostly Clear 58 14.4 47 8.3 67 67 NNW 10 17 30.12 1020 10 16.09344 0 0
6:52 am 06:52 Partly Cloudy 57 13.9 46 7.8 67 67 NW 12 19 30.15 1021 10 16.09344 0 0
7:52 am 07:52 Mostly Sunny 56 13.3 46 7.8 70 70 NNW 15 24 30.18 1022 10 16.09344 0 0
8:52 am 08:52 Mostly Sunny 57 13.9 45 7.2 64 64 N 14 22 30.21 1023 10 16.09344 0 0
9:52 am 09:52 Mostly Cloudy 58 14.4 43 6.1 58 58 N 15 24 30.24 1024 10 16.09344 0 0
10:52 am 10:52 Partly Cloudy 60 15.6 42 5.6 52 52 N 10 17 30.24 1024 10 16.09344 0 0
11:52 am 11:52 Mostly Cloudy 62 16.7 42 5.6 48 48 N 14 22 30.21 1023 10 16.09344 0 0
12:52 pm 12:52 Partly Cloudy 62 16.7 39 3.9 43 43 N 15 24 30.21 1023 10 16.09344 0 0
1:52 pm 13:52 Mostly Sunny 63 17.2 38 3.3 40 40 N 15 24 30.21 1023 10 16.09344 0 0
2:52 pm 14:52 Mostly Sunny 64 17.8 37 2.8 37 37 N 16 26 30.21 1023 10 16.09344 0 0
3:52 pm 15:52 Mostly Sunny 64 17.8 36 2.2 35 35 NNW 16 26 30.21 1023 10 16.09344 0 0
4:52 pm 16:52 Mostly Sunny 63 17.2 35 1.7 35 35 N 16 26 30.21 1023 10 16.09344 0 0
5:52 pm 17:52 Mostly Sunny 61 16.1 33 0.6 35 35 N 14 22 30.24 1024 10 16.09344 0 0
6:52 pm 18:52 Clear 59 15 34 1.1 39 39 N 13 20 30.24 1024 10 16.09344 0 0
7:52 pm 19:52 Clear 57 13.9 34 1.1 42 42 NW 6 9 30.27 1025 10 16.09344 0 0
8:52 pm 20:52 Clear 55 12.8 35 1.7 47 47 NNW 8 13 30.27 1025 10 16.09344 0 0
9:52 pm 21:52 Clear 53 11.7 36 2.2 52 52 N 6 9 30.27 1025 10 16.09344 0 0
10:52 pm 22:52 Clear 54 12.2 35 1.7 49 49 NNW 7 11 30.3 1026 10 16.09344 0 0
11:52 pm 23:52 Clear 52 11.1 35 1.7 53 53 NNW 6 9 30.3 1026 10 16.09344 0 0

Powered by AerisWeather